GW0759 Weather Reports


Display with metric or nautical units.
time (UTC)temp
F
wind
direction
speed
MPH
gust
MPH
rain 1hr
in
rain 24hr
in
rain mn
in
humidity
%
barometer
mb
20260906010105 91 111 1.0 5.0 0.00 0.00 0.00 49 1009.6
20260906004613 92 115 2.0 8.0 0.00 0.00 0.00 47 1009.7
20260906003110 93 124 3.0 8.0 0.00 0.00 0.00 46 1009.7
20260906001555 94 123 3.0 10.0 0.00 0.00 0.00 45 1009.6
20260906000050 96 113 5.0 13.0 0.00 0.00 0.00 43 1009.6
20260905234610 101 113 2.0 8.0 0.00 0.00 0.00 36 1009.5
20260905233057 101 169 3.0 9.0 0.00 0.00 0.00 35 1009.4
20260905231600 100 80 4.0 10.0 0.00 0.00 0.00 36 1009.5
20260905230057 99 159 1.0 9.0 0.00 0.00 0.00 39 1009.4
20260905224604 101 155 3.0 10.0 0.00 0.00 0.00 34 1009.5
20260905223101 101 177 1.0 8.0 0.00 0.00 0.00 35 1009.2
20260905221612 102 87 3.0 9.0 0.00 0.00 0.00 35 1009.3
20260905220103 103 138 3.0 8.0 0.00 0.00 0.00 35 1009.5
20260905214600 98 118 1.0 8.0 0.00 0.00 0.00 39 1009.6
20260905213106 102 119 4.0 8.0 0.00 0.00 0.00 35 1009.8
20260905211559 103 159 3.0 7.0 0.00 0.00 0.00 35 1009.9
20260905210100 99 126 1.0 7.0 0.00 0.00 0.00 38 1010.1
20260905204554 99 112 1.0 7.0 0.00 0.00 0.00 37 1010.2
20260905203054 97 97 2.0 7.0 0.00 0.00 0.00 42 1010.4
20260905201623 98 338 2.0 7.0 0.00 0.00 0.00 38 1010.5
20260905194555 100 188 3.0 10.0 0.00 0.00 0.00 38 1011.2
20260905193110 95 182 3.0 7.0 0.00 0.00 0.00 43 1011.5
20260905191551 97 217 4.0 8.0 0.00 0.00 0.00 42 1011.6
20260905190053 97 35 4.0 9.0 0.00 0.00 0.00 42 1011.9
20260905184603 97 101 3.0 10.0 0.00 0.00 0.00 42 1012.3
20260905183056 94 86 3.0 8.0 0.00 0.00 0.00 45 1012.6
20260905181610 94 130 2.0 8.0 0.00 0.00 0.00 45 1012.8
20260905180059 94 225 2.0 8.0 0.00 0.00 0.00 45 1013.0
20260905174603 95 355 3.0 11.0 0.00 0.00 0.00 44 1013.1
20260905173057 94 195 2.0 8.0 0.00 0.00 0.00 44 1013.4
20260905171558 93 85 5.0 10.0 0.00 0.00 0.00 46 1013.6
20260905164601 94 172 2.0 7.0 0.00 0.00 0.00 47 1013.6
20260905163058 92 111 5.0 10.0 0.00 0.00 0.00 50 1013.5
20260905161602 92 97 4.0 9.0 0.00 0.00 0.00 50 1013.5
20260905160104 91 204 4.0 10.0 0.00 0.00 0.00 53 1013.5
20260905154616 89 213 1.0 8.0 0.00 0.00 0.00 58 1013.5
20260905153056 88 103 1.0 5.0 0.00 0.00 0.00 59 1013.5
20260905151605 86 142 2.0 6.0 0.00 0.00 0.00 62 1013.4
20260905150104 85 157 2.0 5.0 0.00 0.00 0.00 66 1013.5
20260905144609 84 309 3.0 6.0 0.00 0.00 0.00 66 1013.6
20260905143103 83 261 3.0 8.0 0.00 0.00 0.00 68 1013.4
20260905141622 82 234 3.0 8.0 0.00 0.00 0.00 74 1013.3
20260905140059 80 236 2.0 5.0 0.00 0.00 0.00 79 1013.4
20260905134604 78 165 0.0 4.0 0.00 0.00 0.00 83 1013.1
20260905133100 77 188 0.0 4.0 0.00 0.00 0.00 85 1013.1
20260905131607 76 147 1.0 6.0 0.00 0.00 0.00 87 1012.9
20260905130054 75 107 1.0 5.0 0.00 0.00 0.00 89 1012.6
20260905124551 74 152 0.0 1.0 0.00 0.00 0.00 90 1012.7
20260905123100 73 152 0.0 3.0 0.00 0.00 0.00 90 1012.6
20260905121603 73 152 1.0 2.0 0.00 0.00 0.00 90 1012.7
20260905120105 73 0 0.0 0.0 0.00 0.00 0.00 90 1012.7
20260905114556 73 0 0.0 0.0 0.00 0.00 0.00 90 1012.6
20260905113052 73 0 0.0 0.0 0.00 0.00 0.00 89 1012.4
20260905111602 73 0 0.0 2.0 0.00 0.00 0.00 87 1012.4
20260905110058 74 0 0.0 2.0 0.00 0.00 0.00 87 1012.4
20260905104612 74 0 0.0 1.0 0.00 0.00 0.00 87 1012.3
20260905103056 74 152 0.0 0.0 0.00 0.00 0.00 87 1012.3
20260905101557 75 0 0.0 2.0 0.00 0.00 0.00 86 1012.2
20260905100107 75 152 1.0 3.0 0.00 0.00 0.00 86 1012.1
20260905094601 75 0 0.0 0.0 0.00 0.00 0.00 85 1012.2
20260905093052 75 0 0.0 1.0 0.00 0.00 0.00 84 1012.2
20260905091608 76 152 0.0 2.0 0.00 0.00 0.00 83 1012.3
20260905090057 77 152 0.0 3.0 0.00 0.00 0.00 82 1012.2
20260905084609 77 152 2.0 5.0 0.00 0.00 0.00 82 1012.1
20260905083058 77 164 0.0 4.0 0.00 0.00 0.00 82 1011.9
20260905081559 77 164 1.0 4.0 0.00 0.00 0.00 81 1012.0
20260905080107 77 0 0.0 2.0 0.00 0.00 0.00 81 1012.2
20260905074602 78 195 1.0 4.0 0.00 0.01 0.00 80 1012.0
20260905073058 78 177 1.0 5.0 0.00 0.01 0.00 79 1012.0
20260905071607 78 164 1.0 7.0 0.00 0.01 0.00 79 1012.2
20260905070111 78 186 1.0 4.0 0.00 0.01 0.00 78 1012.4
20260905064553 79 182 1.0 6.0 0.00 0.08 0.00 77 1012.4
20260905063051 79 163 1.0 5.0 0.00 0.08 0.00 76 1012.5
20260905061609 80 132 1.0 5.0 0.00 0.08 0.00 75 1012.5
20260905060107 80 161 1.0 5.0 0.00 0.08 0.00 74 1012.5
20260905054600 81 132 2.0 6.0 0.00 0.16 0.00 73 1012.3
20260905053053 81 134 2.0 6.0 0.00 0.16 0.00 72 1012.3
20260905051558 82 130 2.0 6.0 0.00 0.16 0.00 72 1012.2
20260905050056 82 165 2.0 7.0 0.00 0.16 0.00 71 1012.0
20260905044558 82 117 1.0 6.0 0.00 0.16 0.16 70 1012.3
20260905043056 83 196 2.0 5.0 0.00 0.16 0.16 68 1012.2
20260905041607 83 155 2.0 8.0 0.00 0.16 0.16 67 1012.2
20260905040058 84 152 2.0 8.0 0.00 0.16 0.16 66 1012.2
20260905034600 84 132 3.0 9.0 0.00 0.16 0.16 64 1012.3
20260905033101 85 124 3.0 9.0 0.00 0.16 0.16 62 1012.3
20260905031558 85 113 3.0 8.0 0.00 0.16 0.16 61 1012.2
20260905024602 86 140 2.0 7.0 0.00 0.16 0.16 59 1012.0
20260905023104 86 134 2.0 7.0 0.00 0.16 0.16 58 1011.8
20260905021557 86 132 1.0 4.0 0.00 0.16 0.16 57 1011.4
20260905020100 87 130 2.0 5.0 0.00 0.16 0.16 56 1011.0
20260905014553 88 134 2.0 5.0 0.00 0.16 0.16 55 1010.7
20260905013101 88 130 2.0 4.0 0.00 0.16 0.16 54 1010.4
20260905011559 89 117 1.0 5.0 0.00 0.16 0.16 52 1010.4